Weather History for Beaufort, NC

Change the Weather History Date:

Wednesday, January 23, 2013

  Actual Average Record
Temperature  
Mean Temperature 34 °F -  
Max Temperature 44 °F 54 °F 69 °F (1974)
Min Temperature 26 °F 36 °F 12 °F (1970)
Degree Days  
Heating Degree Days 32    
Moisture  
Dew Point 12 °F    
Average Humidity 42    
Maximum Humidity 67    
Minimum Humidity 23    
Precipitation  
Precipitation 0.00 in - - ()
Sea Level Pressure  
Sea Level Pressure 30.29 in    
Wind  
Wind Speed 7 mph (NNW)    
Max Wind Speed 15 mph    
Max Gust Speed -    
Visibility 10 miles    
Events      
Averages and records for this station are not official NWS values.
T = Trace of Precipitation, MM = Missing Value Source: NWS Daily Summary

Daily Weather History Graph

Daily Weather History Graph

Search for Another Location

Airport:

Trip Planner

Search our weather history database for the weather conditions in past years. The results will help you decide how hot, cold, wet, or windy it might be!

Date:

Astronomy

Jan. 23, 2013 Rise Set
Actual Time 7:10 AM EST 5:27 PM EST
Civil Twilight 6:43 AM EST 5:54 PM EST
Nautical Twilight 6:12 AM EST 6:24 PM EST
Astronomical Twilight 5:42 AM EST 6:54 PM EST
Moon 2:37 PM EST (1/23) 4:18 AM EST (1/23)
Length of Visible Light 11h 10m
Length of Day
10h 16m
Waxing Gibbous, 89% of the Moon is Illuminated
Jan 23
Waxing Gibbous
Jan 26
Full
Feb 3
Last Quarter
Feb 10
New
Feb 17
First Quarter

Hourly Weather History & Observations

Time (EST) Temp. Windchill Dew Point Humidity Pressure Visibility Wind Dir Wind Speed Gust Speed Precip Events Conditions
12:58 AM 30.0 °F 25.2 °F 12.0 °F 47% 30.27 in 10.0 mi NNE 4.6 mph - N/A   Clear
1:58 AM 28.0 °F 20.8 °F 15.1 °F 58% 30.28 in 10.0 mi North 6.9 mph - N/A   Clear
2:58 AM 30.0 °F 21.7 °F 12.0 °F 47% 30.29 in 10.0 mi North 9.2 mph - N/A   Clear
3:58 AM 28.0 °F 20.8 °F 10.0 °F 47% 30.30 in 10.0 mi North 6.9 mph - N/A   Clear
4:58 AM 28.0 °F 20.0 °F 10.0 °F 47% 30.32 in 10.0 mi North 8.1 mph - N/A   Clear
5:58 AM 26.1 °F 18.4 °F 10.0 °F 51% 30.33 in 10.0 mi North 6.9 mph - N/A   Clear
6:58 AM 26.1 °F 20.5 °F 9.0 °F 49% 30.35 in 10.0 mi North 4.6 mph - N/A   Clear
7:58 AM 28.0 °F 21.7 °F 6.1 °F 39% 30.37 in 10.0 mi North 5.8 mph - N/A   Clear
8:58 AM 30.9 °F 21.7 °F 5.0 °F 33% 30.38 in 10.0 mi North 11.5 mph - N/A   Clear
9:58 AM 34.0 °F 24.2 °F 1.0 °F 25% 30.39 in 10.0 mi NNW 15.0 mph - N/A   Clear
10:58 AM 36.0 °F 28.0 °F 1.0 °F 23% 30.38 in 10.0 mi North 11.5 mph - N/A   Clear
12:58 PM 39.0 °F 33.4 °F 5.0 °F 24% 30.32 in 10.0 mi NW 8.1 mph - N/A   Clear
1:58 PM 39.9 °F 34.5 °F 5.0 °F 23% 30.29 in 10.0 mi NNW 8.1 mph - N/A   Clear
2:58 PM 39.9 °F 36.7 °F 6.1 °F 25% 30.27 in 10.0 mi SSW 4.6 mph - N/A   Clear
3:58 PM 39.9 °F - 10.0 °F 29% 30.26 in 10.0 mi Calm Calm - N/A   Clear
4:58 PM 39.0 °F 36.8 °F 15.1 °F 38% 30.26 in 10.0 mi South 3.5 mph - N/A   Clear
5:58 PM 37.0 °F - 12.9 °F 37% 30.26 in 10.0 mi Calm Calm - N/A   Clear
6:58 PM 37.0 °F 32.4 °F 15.1 °F 41% 30.26 in 10.0 mi WNW 5.8 mph - N/A   Clear
7:58 PM 34.0 °F - 16.0 °F 48% 30.25 in 10.0 mi Calm Calm - N/A   Clear
8:58 PM 28.9 °F - 19.0 °F 67% 30.22 in 10.0 mi Calm Calm - N/A   Clear
9:58 PM 37.9 °F 33.5 °F 23.0 °F 55% 30.22 in 10.0 mi SW 5.8 mph - N/A   Clear
10:58 PM 41.0 °F 35.2 °F 27.0 °F 57% 30.18 in 10.0 mi SSW 9.2 mph - N/A   Clear
11:58 PM 44.1 °F 37.4 °F 30.0 °F 58% 30.14 in 10.0 mi SW 13.8 mph - N/A   Clear